Regional Weather Roundup
Issued by NWS Charleston, SC

Home | Current Version | Previous Version | Text Only | Print | Product List | Glossary On
Versions: 1 2 3 4 5 6 7 8 9 10 11 12 13 14 15 16 17 18 19 20 21 22 23 24 25 26 27 28 29 30 31 32 33 34 35 36 37 38 39 40 41 42 43 44 45 46 47 48 49 50
000
ASUS42 KCHS 180811
RWRCHS

REGIONAL WEATHER ROUNDUP
NATIONAL WEATHER SERVICE CHARLESTON SC
400 AM EDT SAT APR 18 2015

NOTE: "FAIR" INDICATES FEW OR NO CLOUDS BELOW 12,000 FEET WITH NO
SIGNIFICANT WEATHER AND/OR OBSTRUCTIONS TO VISIBILITY.

NOT ALL STATIONS ARE QUALITY CONTROLLED BY THE NATIONAL
WEATHER SERVICE. USE DATA WITH CAUTION...ESPECIALLY
DEWPOINT OBSERVATIONS.

SCZ027-030-031-034>040-042>050-180900-
...SOUTHEAST SOUTH CAROLINA...

CITY           SKY/WX    TMP DP  RH WIND       PRES   REMARKS
N CHARLESTON   LGT RAIN  67  66  97 CALM      29.97F FOG
WATERFRONT PRK   N/A     70 N/A N/A S3          N/A
MOUNT PLEASANT RAIN      66  66 100 CALM      29.97F
PINOPOLIS      NOT AVBL
MONCKS CORNER  LGT RAIN  68  66  94 CALM      29.96F
SUMMERVILLE    LGT RAIN  66  66 100 CALM      29.97F
BEAUFORT MCAS  LGT RAIN  68  67  96 CALM      29.96F FOG
BEAUFORT ARPT  LGT RAIN  68  68 100 CALM      29.97F
HILTON HEAD IS RAIN      68  68 100 CALM      29.99F
WALTERBORO     RAIN      64  64 100 SE5       29.97F
ALLENDALE      CLOUDY    66  66 100 CALM      29.95F FOG

...SOUTHERN MIDLANDS AND PEE DEE...

CITY           SKY/WX    TMP DP  RH WIND       PRES   REMARKS
GEORGETOWN     NOT AVBL
KINGSTREE      NOT AVBL
ORANGEBURG     LGT RAIN  66  63  90 NE3       29.97S FOG
BARNWELL       LGT RAIN  66  66 100 N3        29.98R
AIKEN          CLOUDY    50  48  93 CALM      30.01S FOG
MANNING        LGT RAIN  64  63  94 CALM      29.97S
COLUMBIA       CLOUDY    67  64  90 CALM      29.97R
SUMTER         CLOUDY    64  64 100 NW3       29.95F
FLORENCE       CLOUDY    67  64  90 CALM      29.97F
MYRTLE BEACH   CLOUDY    68  64  88 NW5       29.98F
N MYRTLE BEACH CLOUDY    67  65  93 CALM      29.95F

$$

GAZ063-065-086>088-099>101-113>116-118-119-134>141-150-180900-
...SOUTHEAST GEORGIA...

CITY           SKY/WX    TMP DP  RH WIND       PRES   REMARKS
SAVANNAH ARPT  LGT RAIN  68  66  93 CALM      29.97F
HUNTER AAF     CLOUDY    68  68 100 CALM      29.94F
FORT STEWART   CLOUDY    66  66 100 E1        29.94F
STATESBORO       N/A     66  66 100 SE3       29.96F FOG
SYLVANIA       CLOUDY    66  66 100 CALM      29.96F FOG
CLAXTON        CLOUDY    66  66 100 CALM      29.96F FOG

...CSRA...CENTRAL AND FAR SOUTHEAST GEORGIA...

CITY           SKY/WX    TMP DP  RH WIND       PRES   REMARKS
THOMSON        CLOUDY    66  66 100 CALM      30.02F
AUGUSTA-BUSH   CLOUDY    65  64  97 N3        29.97S FOG
AUGUSTA-DANIEL CLOUDY    66  64  93 CALM      29.98S FOG
SWAINSBORO     CLOUDY    68  68 100 CALM      29.97S
VIDALIA        HVY RAIN  66  66 100 SE5       29.96F
EASTMAN        CLOUDY    67  67 100 SE5       29.96F
HAZLEHURST     CLOUDY    69  69 100 SE5       29.94S FOG
ALMA           MOCLDY    67  66  97 SE7       29.95F FOG
WAYCROSS       CLOUDY    71  69  93 CALM      29.96F
JESUP          CLOUDY    70  68  94 CALM      29.96F FOG
BAXLEY         CLOUDY    68  68 100 SE3       29.95F
BRUNSWICK      CLOUDY    68  64  88 CALM      29.97F
SAINT SIMONS   CLOUDY    68  66  93 NE3       29.96F

$$

SCZ027-028-034-036>038-045-046-048>050-GAZ119-141-180900-
...LAKE AND SUPPLEMENTAL COASTAL OBSERVATIONS...

STATION/POSITION TIME  TEMP    WIND        PRES    WAVE   SWELL
                       AIR SEA DIR/SP/G            HT/PER HT/PER/DIR
                 (UTC) (F)     (DEG/KT/KT) (MB)    (FT/S) (FT/S/D)
UPR LAKE MARION  NOT AVBL
WINYAH BAY       NOT AVBL
LAKE MURRAY      0700   64      CALM  /  2 1014.6F
ACE BASIN NERRS  NOT AVBL
FORT PULASKI     0700   69 71   CALM  /  1 1015.9F
SAPELO ISLAND    0700   67      60/  2     1015.0S

$$

ANZ835-935-AMZ111-154-330-350-352-354-370-450-454-472-180900-
...C-MAN AND BUOY OBSERVATIONS...

STATION/POSITION TIME  TEMP    WIND        PRES    WAVE   SWELL
                       AIR SEA DIR/SP/G            HT/PER HT/PER/DIR
                 (UTC) (F)     (DEG/KT/KT) (MB)    (FT/S) (FT/S/D)
BUOY 41004       0750   71 74  330/  6/  8 1014.1R   4/ 8   3/ 8
BUOY 41008       0750   66 66  260/  2/  2 1015.5R   3/ 8   3/100/ 8
FOLLY BEACH CMAN 0800   67      CALM  /  1 1014.7F
CAPERS NEARSHORE NOT AVBL
FRIPP NEARSHORE  0700   68     270/  2/  4 1015.6


STATION/POSITION TIME  TEMP    WIND        PRES    WAVE   SWELL
                       AIR SEA DIR/SP/G            HT/PER HT/PER/DIR
                 (UTC) (F)     (DEG/KT/KT) (MB)    (FT/S) (FT/S/D)
5E ST. MARYS GA  0721      70                N/A     2/ 9
FRYING PAN BUOY  0750   74 73   90/  4/  6 1014.5R   4/ 8   3/110/ 8
BUOY 41025       0750   70 74   20/  8/  8 1014.6S   5/ 8   5/100/ 8
CAPE LOOKOUT NC  0800   67      10/  4/  4 1014.4R
BUOY 41002       0750   72 73  240/  6/  8 1014.3S   5/ 9   5/ 90/ 9
BUOY 41010       0720   76 78  230/ 10/ 12 1015.2S
ST AUGUSTINE FL  0800   68 69  210/  2/  3 1015.4S


$$


USA.gov is the U.S. government's official web portal to all federal, state and local government web resources and services.